FW0311 Weather Reports


time (UTC)temp
F
wind
direction
speed
knots
gust
knots
rain 1hr
in
rain 24hr
in
rain mn
in
humidity
%
barometer
mb
20260505070020 64 223 4.3 7.8 0.00 0.00 0.00 64 1007.9
20260505064521 64 223 1.7 7.8 0.00 0.00 0.00 63 1007.8
20260505063019 64 188 4.3 12.2 0.00 0.00 0.00 63 1007.8
20260505061516 64 198 1.7 10.4 0.00 0.00 0.00 63 1008.0
20260505060013 64 238 2.6 8.7 0.00 0.00 0.00 64 1008.1
20260505054511 63 156 2.6 6.1 0.00 0.00 0.00 64 1008.3
20260505053010 64 214 0.9 6.1 0.00 0.00 0.00 63 1008.5
20260505051510 64 180 1.7 7.0 0.00 0.00 0.00 63 1008.5
20260505041505 64 223 2.6 6.1 0.00 0.00 0.00 64 1008.8
20260505040001 64 252 2.6 6.1 0.00 0.00 0.00 64 1008.8
20260505034600 64 213 2.6 7.8 0.00 0.00 0.00 64 1008.7
20260505033101 64 190 2.6 8.7 0.00 0.00 0.00 63 1008.7
20260505031659 64 213 2.6 8.7 0.00 0.00 0.00 63 1008.5
20260505024559 65 211 0.9 7.0 0.00 0.00 0.00 62 1008.6
20260505023057 65 211 1.7 6.1 0.00 0.00 0.00 61 1008.6
20260505021557 65 205 3.5 6.1 0.00 0.00 0.00 60 1008.6
20260505020056 65 236 3.5 7.0 0.00 0.00 0.00 60 1008.7
20260505014605 65 170 0.9 6.1 0.00 0.00 0.00 59 1008.5
20260505013055 66 195 0.0 5.2 0.00 0.00 0.00 58 1008.6
20260505011554 67 200 0.9 7.8 0.00 0.00 0.00 56 1008.5
20260505010056 67 204 0.0 5.2 0.00 0.00 0.00 55 1008.1
20260505004557 68 206 0.0 4.3 0.00 0.00 0.00 53 1008.1
20260505003053 68 194 0.0 4.3 0.00 0.00 0.00 52 1008.1
20260505001552 69 230 2.6 13.9 0.00 0.00 0.00 52 1008.1
20260505000056 69 182 3.5 7.8 0.00 0.00 0.00 49 1008.0
20260504234549 70 221 4.3 13.9 0.00 0.00 0.00 48 1007.9
20260504233049 71 223 4.3 12.2 0.00 0.00 0.00 47 1007.9
20260504231549 72 244 4.3 15.6 0.00 0.00 0.00 46 1007.6
20260504230051 72 186 5.2 15.6 0.00 0.00 0.00 45 1007.5
20260504224549 72 234 7.8 14.8 0.00 0.00 0.00 45 1007.4
20260504223047 72 237 3.5 16.5 0.00 0.00 0.00 49 1007.3
20260504221545 72 199 7.0 12.2 0.00 0.00 0.00 48 1007.4
20260504220046 73 177 4.3 13.9 0.00 0.00 0.00 48 1007.4
20260504214552 74 246 3.5 14.8 0.00 0.00 0.00 46 1007.5
20260504213043 74 246 7.0 19.1 0.00 0.00 0.00 46 1007.5
20260504211540 74 210 6.1 13.9 0.00 0.00 0.00 45 1007.6
20260504210054 74 180 4.3 13.9 0.00 0.00 0.00 46 1007.6
20260504204553 74 208 7.0 13.9 0.00 0.00 0.00 44 1007.7
20260504203041 74 227 4.3 10.4 0.00 0.00 0.00 43 1007.7
20260504201533 74 195 8.7 19.1 0.00 0.00 0.00 42 1007.8
20260504200030 74 225 4.3 13.9 0.00 0.00 0.00 43 1008.1
20260504194528 73 204 5.2 14.8 0.00 0.00 0.00 45 1008.2
20260504193026 72 263 5.2 13.9 0.00 0.00 0.00 44 1008.5
20260504191524 73 230 11.3 16.5 0.00 0.00 0.00 43 1008.8
20260504190022 73 242 6.1 13.9 0.00 0.00 0.00 42 1008.9
20260504184519 73 204 4.3 20.9 0.00 0.00 0.00 41 1009.0
20260504183016 73 246 6.1 19.1 0.00 0.00 0.00 41 1009.3
20260504181515 73 244 6.1 19.1 0.00 0.00 0.00 42 1009.4
20260504180011 72 169 6.1 16.5 0.00 0.00 0.00 44 1009.9
20260504174509 71 251 6.1 16.5 0.00 0.00 0.00 45 1010.0
20260504173005 71 248 6.1 15.6 0.00 0.00 0.00 45 1010.2
20260504171503 70 236 6.1 20.9 0.00 0.00 0.00 47 1010.6
20260504081541 40 209 0.0 2.6 0.00 0.00 0.00 78 1014.3